FW4703 Weather Reports


Display with metric or nautical units.
time (UTC)temp
F
wind
direction
speed
MPH
gust
MPH
rain 1hr
in
rain 24hr
in
rain mn
in
humidity
%
barometer
mb
20260504050516 70 0 0.0 4.0 0.00 0.00 0.00 75 1017.0
20260504045517 70 82 1.0 8.0 0.00 0.00 0.00 76 1017.0
20260504045016 70 83 3.0 8.0 0.00 0.00 0.00 75 1017.0
20260504044530 71 0 0.0 7.0 0.00 0.00 0.00 75 1017.0
20260504044019 71 49 2.0 7.0 0.00 0.00 0.00 75 1017.0
20260504043517 71 65 2.0 6.0 0.00 0.00 0.00 75 1016.9
20260504043032 71 75 1.0 9.0 0.00 0.00 0.00 75 1017.1
20260504042517 71 65 3.0 9.0 0.00 0.00 0.00 75 1017.2
20260504042016 71 77 0.0 6.0 0.00 0.00 0.00 76 1017.5
20260504041532 71 61 1.0 6.0 0.00 0.00 0.00 76 1017.5
20260504041016 71 108 1.0 4.0 0.00 0.00 0.00 76 1017.6
20260504040516 71 71 1.0 5.0 0.00 0.00 0.00 76 1017.7
20260504040041 71 63 1.0 5.0 0.00 0.00 0.00 76 1017.8
20260504035520 71 109 1.0 4.0 0.00 0.00 0.00 76 1017.8
20260504035015 71 86 0.0 4.0 0.00 0.00 0.00 76 1017.8
20260504034534 70 115 0.0 5.0 0.00 0.00 0.00 76 1017.9
20260504034016 70 0 0.0 5.0 0.00 0.00 0.00 75 1017.8
20260504033516 70 0 0.0 7.0 0.00 0.00 0.00 75 1017.8
20260504033045 70 103 0.0 7.0 0.00 0.00 0.00 75 1017.8
20260504032516 70 95 0.0 2.0 0.00 0.00 0.00 74 1017.8
20260504032014 70 0 0.0 2.0 0.00 0.00 0.00 74 1017.7
20260504031533 70 0 0.0 1.0 0.00 0.00 0.00 73 1017.6
20260504031016 71 0 0.0 1.0 0.00 0.00 0.00 73 1017.5
20260504030515 71 0 0.0 1.0 0.00 0.00 0.00 73 1017.5
20260504030033 71 0 0.0 3.0 0.00 0.00 0.00 73 1017.6
20260504025519 71 31 0.0 3.0 0.00 0.00 0.00 73 1017.4
20260504025022 71 0 0.0 3.0 0.00 0.00 0.00 72 1017.4
20260504024543 71 0 0.0 3.0 0.00 0.00 0.00 72 1017.4
20260504024017 71 0 0.0 4.0 0.00 0.00 0.00 72 1017.4
20260504023517 71 44 0.0 4.0 0.00 0.00 0.00 72 1017.2
20260504023033 71 54 0.0 5.0 0.00 0.00 0.00 72 1017.2
20260504022516 71 91 1.0 5.0 0.00 0.00 0.00 72 1017.3
20260504022017 71 87 0.0 3.0 0.00 0.00 0.00 72 1017.2
20260504021534 71 11 0.0 4.0 0.00 0.00 0.00 72 1017.2
20260504021016 71 0 1.0 5.0 0.00 0.00 0.00 72 1017.1
20260504020516 71 26 0.0 5.0 0.00 0.00 0.00 72 1016.9
20260504020030 71 336 1.0 5.0 0.00 0.00 0.00 72 1016.9
20260504015516 71 53 0.0 4.0 0.00 0.00 0.00 71 1016.8
20260504015016 71 0 0.0 4.0 0.00 0.00 0.00 71 1016.9
20260504014530 71 25 0.0 4.0 0.00 0.00 0.00 71 1016.7
20260504014018 71 0 0.0 3.0 0.00 0.00 0.00 71 1016.6
20260504013516 72 0 0.0 1.0 0.00 0.00 0.00 70 1016.5
20260504013033 72 0 0.0 2.0 0.00 0.00 0.00 70 1016.3
20260504012516 72 0 0.0 2.0 0.00 0.00 0.00 70 1016.3
20260504012015 72 0 0.0 3.0 0.00 0.00 0.00 70 1016.3
20260504011530 72 0 1.0 4.0 0.00 0.00 0.00 69 1016.2
20260504011016 72 12 0.0 4.0 0.00 0.00 0.00 69 1016.2
20260504010519 72 0 0.0 3.0 0.00 0.00 0.00 68 1016.1
20260504010031 72 319 0.0 5.0 0.00 0.00 0.00 68 1016.2
20260504005516 73 315 1.0 5.0 0.00 0.00 0.00 68 1016.0
20260504005016 73 0 1.0 7.0 0.00 0.00 0.00 68 1015.8
20260504004541 73 31 1.0 7.0 0.00 0.00 0.00 68 1015.9
20260504004016 73 0 1.0 9.0 0.00 0.00 0.00 67 1015.9
20260504003515 73 0 2.0 9.0 0.00 0.00 0.00 67 1015.9
20260504003032 73 0 1.0 9.0 0.00 0.00 0.00 67 1015.9
20260504002516 73 0 2.0 5.0 0.00 0.00 0.00 67 1015.9
20260504002017 74 290 0.0 5.0 0.00 0.00 0.00 67 1015.7
20260504001543 74 31 2.0 6.0 0.00 0.00 0.00 66 1015.6
20260504001020 74 0 1.0 6.0 0.00 0.00 0.00 66 1015.6
20260504000519 74 345 1.0 5.0 0.00 0.00 0.00 66 1015.4
20260504000034 74 57 1.0 8.0 0.00 0.00 0.00 66 1015.4
20260503235517 75 22 1.0 8.0 0.00 0.00 0.00 66 1015.4
20260503235016 75 331 2.0 8.0 0.00 0.00 0.00 66 1015.4
20260503234532 75 317 2.0 9.0 0.00 0.00 0.00 66 1015.5
20260503234016 75 320 3.0 10.0 0.00 0.00 0.00 65 1015.5
20260503233516 75 318 1.0 10.0 0.00 0.00 0.00 65 1015.4
20260503233034 76 355 4.0 10.0 0.00 0.00 0.00 65 1015.4
20260503232516 76 315 3.0 9.0 0.00 0.00 0.00 65 1015.4
20260503232015 76 314 3.0 9.0 0.00 0.00 0.00 64 1015.4
20260503231536 76 289 3.0 9.0 0.00 0.00 0.00 64 1015.4
20260503231019 77 328 3.0 9.0 0.00 0.00 0.00 63 1015.3
20260503230516 77 303 3.0 10.0 0.00 0.00 0.00 62 1015.2
20260503230035 78 333 3.0 10.0 0.00 0.00 0.00 62 1015.2
20260503225516 78 304 3.0 10.0 0.00 0.01 0.00 61 1015.2
20260503225016 79 298 5.0 10.0 0.00 0.01 0.00 60 1015.2
20260503224535 80 348 3.0 12.0 0.00 0.01 0.00 59 1015.0
20260503224017 80 51 3.0 12.0 0.00 0.01 0.00 58 1015.0
20260503223516 81 340 2.0 11.0 0.00 0.01 0.00 57 1015.0
20260503223033 81 0 4.0 11.0 0.00 0.01 0.00 56 1015.2
20260503222516 82 360 3.0 10.0 0.00 0.01 0.00 56 1015.2
20260503222016 82 302 4.0 10.0 0.00 0.01 0.00 55 1015.2
20260503221530 82 300 2.0 9.0 0.00 0.01 0.00 55 1015.2
20260503221017 83 0 1.0 7.0 0.00 0.01 0.00 54 1015.2
20260503220516 83 5 1.0 8.0 0.00 0.01 0.00 54 1015.2
20260503220038 83 0 1.0 8.0 0.00 0.01 0.00 52 1015.1
20260503215516 82 55 1.0 7.0 0.00 0.06 0.00 50 1015.3
20260503215016 82 59 2.0 7.0 0.00 0.06 0.00 50 1015.3
20260503214534 82 95 1.0 6.0 0.00 0.06 0.00 49 1015.2
20260503214016 82 0 1.0 7.0 0.00 0.06 0.00 52 1015.3
20260503213517 83 67 2.0 7.0 0.00 0.06 0.00 51 1015.3
20260503213032 83 62 2.0 6.0 0.00 0.06 0.00 51 1015.3
20260503212516 83 344 1.0 6.0 0.00 0.06 0.00 50 1015.4
20260503212017 83 82 0.0 4.0 0.00 0.06 0.00 50 1015.4
20260503211539 83 0 0.0 6.0 0.00 0.06 0.00 50 1015.5
20260503211014 83 94 1.0 7.0 0.00 0.06 0.00 49 1015.5
20260503210516 83 65 2.0 10.0 0.00 0.06 0.00 48 1015.5
20260503210033 83 75 2.0 10.0 0.00 0.06 0.00 49 1015.5
20260503205522 84 0 1.0 4.0 0.00 0.10 0.00 49 1015.5
20260503205017 84 329 1.0 10.0 0.00 0.10 0.00 51 1015.6
20260503204533 83 36 1.0 10.0 0.00 0.10 0.00 50 1015.5
20260503204016 84 74 1.0 9.0 0.00 0.10 0.00 50 1015.5
20260503203516 84 70 1.0 9.0 0.00 0.10 0.00 51 1015.4
20260503203032 84 61 2.0 8.0 0.00 0.10 0.00 50 1015.7
20260503202516 84 45 1.0 4.0 0.00 0.10 0.00 52 1015.6
20260503202017 83 52 1.0 6.0 0.00 0.10 0.00 53 1015.7
20260503201530 83 87 2.0 7.0 0.00 0.10 0.00 53 1015.7
20260503201016 83 59 3.0 7.0 0.00 0.10 0.00 51 1015.8
20260503200516 83 37 2.0 7.0 0.00 0.10 0.00 54 1016.0
20260503200031 83 296 2.0 8.0 0.00 0.10 0.00 52 1016.0
20260503195517 83 59 2.0 8.0 0.00 0.35 0.00 54 1016.1
20260503195014 82 32 2.0 8.0 0.00 0.35 0.00 55 1016.1
20260503194535 82 13 2.0 8.0 0.00 0.35 0.00 54 1016.2
20260503194015 82 74 2.0 7.0 0.00 0.35 0.00 53 1016.2
20260503193516 81 123 2.0 7.0 0.00 0.35 0.00 57 1016.4
20260503193040 81 61 2.0 10.0 0.00 0.35 0.00 57 1016.5
20260503192514 81 55 4.0 10.0 0.00 0.35 0.00 55 1016.5
20260503192015 81 83 3.0 9.0 0.00 0.35 0.00 55 1016.5
20260503191530 81 44 1.0 6.0 0.00 0.35 0.00 58 1016.8
20260503191021 81 87 2.0 9.0 0.00 0.35 0.00 57 1017.0
20260503190517 81 144 2.0 9.0 0.00 0.35 0.00 57 1017.0
20260503190041 81 71 2.0 7.0 0.00 0.35 0.00 56 1017.1
20260503185515 81 0 1.0 6.0 0.00 0.71 0.00 56 1017.3
20260503185016 81 107 1.0 9.0 0.00 0.71 0.00 56 1017.4
20260503184537 81 0 3.0 9.0 0.00 0.71 0.00 57 1017.5
20260503184015 81 77 1.0 6.0 0.00 0.71 0.00 58 1017.4
20260503183515 80 90 2.0 8.0 0.00 0.71 0.00 57 1017.4
20260503183036 80 49 3.0 8.0 0.00 0.71 0.00 58 1017.4
20260503182523 81 69 1.0 5.0 0.00 0.71 0.00 56 1017.5
20260503182017 81 63 1.0 8.0 0.00 0.71 0.00 56 1017.6
20260503181534 81 98 2.0 8.0 0.00 0.71 0.00 55 1017.6
20260503181018 82 84 2.0 8.0 0.00 0.71 0.00 57 1017.8
20260503180515 82 67 1.0 7.0 0.00 0.71 0.00 57 1017.8
20260503180032 81 250 2.0 9.0 0.00 0.71 0.00 57 1017.8
20260503175516 81 67 1.0 9.0 0.00 0.71 0.00 59 1017.8
20260503175020 81 113 3.0 9.0 0.00 0.71 0.00 58 1017.8
20260503174543 80 97 2.0 6.0 0.00 0.71 0.00 60 1017.8
20260503174015 80 52 2.0 10.0 0.00 0.71 0.00 58 1017.8
20260503173518 80 90 4.0 10.0 0.00 0.71 0.00 59 1017.9
20260503173033 80 98 3.0 12.0 0.00 0.71 0.00 60 1018.0
20260503172514 80 46 4.0 12.0 0.00 0.71 0.00 61 1018.0
20260503172015 80 51 4.0 10.0 0.00 0.71 0.00 60 1018.0
20260503171530 80 40 3.0 9.0 0.00 0.71 0.00 59 1018.1
20260503171016 80 59 2.0 10.0 0.00 0.71 0.00 61 1018.1
20260503170515 79 30 4.0 11.0 0.00 0.71 0.00 61 1018.0
20260503150517 73 61 4.0 12.0 0.00 0.71 0.00 70 1018.7
20260503131014 64 5 0.0 5.0 0.00 0.71 0.00 89 1017.7
20260503130517 64 329 1.0 8.0 0.00 0.71 0.00 89 1017.8
20260503110517 63 40 1.0 5.0 0.00 0.71 0.00 90 1016.4
20260503081543 64 55 2.0 6.0 0.00 0.71 0.00 89 1015.7
20260503081013 64 74 1.0 5.0 0.00 0.71 0.00 90 1015.4
20260503080515 64 61 1.0 7.0 0.00 0.71 0.00 90 1015.3